User: anonymous   Login
Location: Lower Kingswood
(51.2667°N, 0.2167°W)
Time: 19:48:55
(UTC+00:00)
Language:

Okean 3 Rocket - Orbit

View from above orbital plane
View from above orbital plane
View from above satellite
View from above satellite

Ground track
Ground track

The orbit data is extracted from the following two-line orbital elements,

1 21398U 91039B   24062.55876947  .00000486  00000-0  60076-4 0  9991
2 21398  82.5201 104.4668 0022633  70.2395 290.1256 14.80612021745279
Epoch (UTC): 02 March 2024 13:24:37
Eccentricity: 0.0022633
inclination: 82.5201°
perigee height: 611 km
apogee height: 643 km
right ascension of ascending node: 104.4668°
argument of perigee: 70.2395°
revolutions per day: 14.80612021
mean anomaly at epoch: 290.1256°
orbit number at epoch: 74527

The dashed part of the orbit path shows where the satellite is in the earth's shadow,  

DLR